Location: Gro�sch�nbrunn
(49.5760°N, 11.8868°E)
Time: 14:53:29
(UTC+00:00)

SJ-11-01 - Pass Details

Date: 18 September 2020
Orbit: 684 x 701 km, 98.0° (Epoch: 28 October)

Event Time Altitude Azimuth Distance (km) Brightness Sun altitude
Rises 18:03:40 0° 163° (SSE) 3,067 7.3 -8.1°
Reaches altitude 10° 18:05:55 10° 164° (SSE) 2,152 6.6 -8.5°
Maximum altitude 18:10:38 88° 79° (E) 702 4.3 -9.2°
Drops below altitude 10° 18:15:23 10° 347° (NNW) 2,158 7.2 -9.9°
Sets 18:17:38 0° 347° (NNW) 3,077 8.0 -10.3°
